Location: Ravensburg
(47.7866°N, 9.6124°E)
Time: 15:02:43
(UTC+02:00)

AO-91 - Pass Details

Date: 21 March 2026
Orbit: 425 x 637 km, 97.5° (Epoch: 14 April)

Event Time Altitude Azimuth Distance (km) Brightness Sun altitude
Rises 21:50:13 0° 9° (N) 2,942 ? -30.7°
Reaches altitude 10° 21:52:30 10° 5° (N) 2,016 ? -31.0°
Enters shadow 21:54:23 24° 357° (N) 1,289 ? -31.3°
